Weather History for Malaga, Spain

Change the Weather History Date:

Wednesday, January 16, 2013

  Actual Average Record
Temperature  
Mean Temperature 56 °F -  
Max Temperature 60 °F 60 °F 68 °F (2007)
Min Temperature 51 °F 44 °F 35 °F (2003)
Degree Days  
Heating Degree Days 10    
Growing Degree Days 6 (Base 50)    
Moisture  
Dew Point 42 °F    
Average Humidity 62    
Maximum Humidity 88    
Minimum Humidity 44    
Precipitation  
Precipitation 0.00 in 0.10 in - ()
Sea Level Pressure  
Sea Level Pressure 30.15 in    
Wind  
Wind Speed 10 mph ()    
Max Wind Speed 18 mph    
Max Gust Speed 31 mph    
Visibility 6.8 miles    
Events      
Averages and records for this station are not official NWS values.
T = Trace of Precipitation, MM = Missing Value Source: Averaged Metar Reports

Daily Weather History Graph

Daily Weather History Graph

Search for Another Location

Airport:

Trip Planner

Search our weather history database for the weather conditions in past years. The results will help you decide how hot, cold, wet, or windy it might be!

Date:

Astronomy

Jan. 16, 2013 Rise Set
Actual Time 8:29 AM CET 6:26 PM CET
Civil Twilight 8:01 AM CET 6:54 PM CET
Nautical Twilight 7:29 AM CET 7:26 PM CET
Astronomical Twilight 6:58 AM CET 7:57 PM CET
Moon 11:07 AM CET (1/16) 11:53 PM CET (1/16)
Length of Visible Light 10h 53m
Length of Day
9h 57m
Waxing Crescent, 25% of the Moon is Illuminated
Jan 16
Waxing Crescent
Jan 19
First Quarter
Jan 27
Full
Feb 3
Last Quarter
Feb 10
New

Hourly Weather History & Observations

Time (CET) Temp. Dew Point Humidity Pressure Visibility Wind Dir Wind Speed Gust Speed Precip Events Conditions
12:00 AM 53.6 °F 41.0 °F 62% 30.21 in 6.2 mi NW 11.5 mph 23.0 mph N/A   Partly Cloudy
12:30 AM 53.6 °F 39.2 °F 58% 30.24 in 6.2 mi WNW 10.4 mph - N/A   Partly Cloudy
1:00 AM 54 °F 38 °F 44% 30.25 in 9 mi NW 8.1 mph - -   Clear
1:00 AM 51.8 °F 39.2 °F 62% 30.24 in - NW 8.1 mph - N/A   Clear
1:30 AM 51.8 °F 39.2 °F 62% 30.24 in - WNW 10.4 mph - N/A   Clear
2:00 AM 50.0 °F 41.0 °F 71% 30.21 in - WNW 9.2 mph - N/A   Clear
2:30 AM 50.0 °F 39.2 °F 66% 30.21 in - WNW 11.5 mph - N/A   Clear
3:00 AM 50.0 °F 39.2 °F 66% 30.21 in - WNW 10.4 mph - N/A   Clear
3:30 AM 51.8 °F 39.2 °F 62% 30.21 in - WNW 9.2 mph - N/A   Clear
4:00 AM 51.8 °F 39.2 °F 62% 30.18 in - WNW 8.1 mph - N/A   Clear
4:30 AM 51.8 °F 41.0 °F 67% 30.18 in - WNW 9.2 mph - N/A   Clear
5:00 AM 53.6 °F 41.0 °F 62% 30.18 in - WNW 11.5 mph - N/A   Clear
5:30 AM 53.6 °F 39.2 °F 58% 30.15 in - WNW 11.5 mph - N/A   Clear
6:00 AM 53.6 °F 41.0 °F 62% 30.15 in - NW 17.3 mph - N/A   Clear
6:30 AM 53.6 °F 41.0 °F 62% 30.15 in - NW 18.4 mph 31.1 mph N/A   Clear
7:00 AM 54 °F 43 °F 57% 30.17 in 9 mi NW 17.3 mph - -   Scattered Clouds
7:00 AM 53.6 °F 42.8 °F 67% 30.15 in 6.2 mi NW 17.3 mph - N/A   Partly Cloudy
7:30 AM 53.6 °F 41.0 °F 62% 30.15 in 6.2 mi NW 12.7 mph 25.3 mph N/A   Partly Cloudy
8:00 AM 53.6 °F 41.0 °F 62% 30.15 in 6.2 mi NW 13.8 mph 26.5 mph N/A   Partly Cloudy
8:30 AM 53.6 °F 41.0 °F 62% 30.15 in 6.2 mi NW 12.7 mph 26.5 mph N/A   Scattered Clouds
9:00 AM 53.6 °F 41.0 °F 62% 30.18 in 6.2 mi NW 12.7 mph - N/A   Scattered Clouds
9:30 AM 53.6 °F 41.0 °F 62% 30.18 in 6.2 mi WNW 12.7 mph - N/A   Scattered Clouds
10:00 AM 53.6 °F 41.0 °F 62% 30.18 in 6.2 mi NW 9.2 mph - N/A   Scattered Clouds
10:30 AM 55.4 °F 41.0 °F 58% 30.18 in 6.2 mi WNW 15.0 mph - N/A   Scattered Clouds
11:00 AM 55.4 °F 42.8 °F 63% 30.21 in 6.2 mi WNW 13.8 mph - N/A   Scattered Clouds
11:30 AM 55.4 °F 44.6 °F 67% 30.18 in 6.2 mi WNW 16.1 mph - N/A   Scattered Clouds
12:00 PM 55.4 °F 42.8 °F 63% 30.18 in 6.2 mi WNW 15.0 mph 26.5 mph N/A   Partly Cloudy
12:30 PM 57.2 °F 42.8 °F 59% 30.18 in 6.2 mi WNW 13.8 mph - N/A   Partly Cloudy
1:00 PM 59 °F 43 °F 44% 30.20 in 19 mi WNW 12.7 mph - -   Overcast
1:00 PM 57.2 °F 42.8 °F 59% 30.15 in 6.2 mi WNW 12.7 mph - N/A   Partly Cloudy
1:30 PM 57.2 °F 42.8 °F 59% 30.15 in 6.2 mi WNW 15.0 mph 27.6 mph N/A   Scattered Clouds
2:00 PM 57.2 °F 42.8 °F 59% 30.12 in 6.2 mi WNW 16.1 mph 29.9 mph N/A   Scattered Clouds
2:30 PM 57.2 °F 42.8 °F 59% 30.12 in 6.2 mi WNW 18.4 mph - N/A   Mostly Cloudy
3:00 PM 57.2 °F 44.6 °F 63% 30.12 in 6.2 mi WNW 18.4 mph 29.9 mph N/A   Mostly Cloudy
3:30 PM 57.2 °F 44.6 °F 63% 30.12 in 6.2 mi WNW 17.3 mph - N/A   Scattered Clouds
4:00 PM 57.2 °F 42.8 °F 59% 30.12 in 6.2 mi WNW 16.1 mph - N/A   Scattered Clouds
4:30 PM 57.2 °F 42.8 °F 59% 30.12 in 6.2 mi West 10.4 mph - N/A   Mostly Cloudy
5:00 PM 59.0 °F 42.8 °F 55% 30.12 in 6.2 mi West 13.8 mph - N/A   Mostly Cloudy
5:30 PM 57.2 °F 42.8 °F 59% 30.12 in 6.2 mi West 8.1 mph - N/A   Mostly Cloudy
6:00 PM 57.2 °F 42.8 °F 59% 30.09 in 6.2 mi Variable 2.3 mph - N/A   Mostly Cloudy
6:30 PM 57.2 °F 42.8 °F 59% 30.09 in 6.2 mi Variable 2.3 mph - N/A   Mostly Cloudy
7:00 PM 58 °F 43 °F 47% 30.13 in 12 mi SW 3.5 mph - -   Overcast
7:00 PM 57.2 °F 42.8 °F 59% 30.09 in 6.2 mi SW 3.5 mph - N/A   Scattered Clouds
7:30 PM 57.2 °F 42.8 °F 59% 30.09 in 6.2 mi Variable 2.3 mph - N/A   Scattered Clouds
8:00 PM 57.2 °F 44.6 °F 63% 30.09 in 6.2 mi Variable 2.3 mph - N/A   Partly Cloudy
8:30 PM 55.4 °F 44.6 °F 67% 30.09 in 6.2 mi WNW 4.6 mph - N/A   Scattered Clouds
9:00 PM 57.2 °F 44.6 °F 63% 30.09 in 6.2 mi NW 6.9 mph - N/A   Mostly Cloudy
9:30 PM 55.4 °F 46.4 °F 72% 30.09 in 6.2 mi West 4.6 mph - N/A   Mostly Cloudy
10:00 PM 57.2 °F 46.4 °F 67% 30.06 in 6.2 mi Variable 1.2 mph - N/A   Scattered Clouds
10:30 PM 53.6 °F 50.0 °F 88% 30.06 in 6.2 mi NW 2.3 mph - N/A   Scattered Clouds
11:00 PM 55.4 °F 48.2 °F 77% 30.06 in 6.2 mi SW 2.3 mph - N/A   Scattered Clouds
11:30 PM 53.6 °F 48.2 °F 82% 30.06 in 6.2 mi Calm Calm - N/A   Mostly Cloudy